Theta_e
300 300 299 300 301 302 303 305 306 307 308 308 308 307 308 310 311 311 313 319 320 317 314 317 320 318 324 326 327 329 330 328 327 328 328 328 329 327 328 329 328 327 328 328 328
302 302 302 302 301 300 300 300 301 303 305 305 307 308 309 308 308 308 317 316 317 314 313 314 313 317 324 327 328 329 330 328 327 327 327 327 327 328 329 328 328 329 328 328 329
302 302 302 303 303 302 302 302 300 299 300 302 304 306 307 309 308 310 313 315 316 315 313 312 312 319 325 327 328 329 331 329 328 327 326 327 328 328 328 329 328 328 328 329 329
301 301 301 301 302 302 302 302 302 302 301 300 300 301 304 306 311 310 311 313 315 316 313 312 318 323 324 327 327 328 328 328 328 328 328 328 328 328 328 328 328 328 328 329 329
300 300 300 300 301 301 301 302 302 302 302 302 301 300 302 307 308 310 313 314 315 317 316 313 319 319 321 323 325 328 327 327 328 328 328 328 327 327 326 324 325 327 327 326 325
299 299 300 300 300 300 300 301 301 301 301 302 302 300 303 306 308 309 310 312 314 311 315 313 315 319 320 322 323 323 325 325 326 326 326 326 325 323 323 322 323 323 323 323 324
297 298 299 299 300 300 300 300 300 300 301 301 303 304 306 305 307 309 309 310 310 309 309 312 315 316 318 319 319 319 322 322 321 322 321 319 319 320 320 320 321 321 323 323 324
297 298 298 298 299 300 300 300 301 300 300 301 305 306 305 303 304 307 308 310 310 309 308 309 310 315 316 316 317 319 319 320 320 319 319 319 320 321 321 321 322 323 323 323 323
299 301 301 301 301 300 300 300 300 301 302 304 306 305 305 303 303 304 305 307 309 310 307 309 309 314 316 318 319 318 320 319 319 318 318 320 321 321 320 321 321 322 323 323 324
302 302 302 301 301 301 300 300 303 306 307 304 305 305 303 305 306 307 308 308 308 309 309 308 312 314 314 317 320 319 318 318 318 318 318 318 320 321 321 322 322 322 323 323 323
302 302 302 301 301 301 301 301 306 306 304 306 305 305 304 304 305 306 309 308 309 308 311 309 312 316 316 315 317 319 320 321 318 319 318 321 322 323 322 322 322 322 322 322 322
302 302 302 301 301 301 302 303 303 304 304 304 303 305 303 304 306 305 306 309 309 310 311 310 313 315 316 316 314 315 316 318 318 318 320 322 322 322 322 322 321 322 323 324 325
302 302 303 304 302 302 300 302 303 303 305 305 305 306 306 306 307 306 307 308 309 310 311 313 314 313 314 316 316 316 317 317 319 321 320 321 322 322 322 322 321 321 324 324 324
301 301 301 302 302 301 302 302 302 304 307 306 307 307 307 307 308 307 306 309 309 310 310 312 313 313 313 315 317 318 318 318 318 319 323 321 325 323 322 322 323 323 325 325 323
300 300 300 301 302 303 301 303 303 304 303 305 309 308 307 308 308 310 308 308 311 311 311 311 311 312 313 314 316 317 318 318 318 320 321 322 322 322 323 322 323 322 324 326 322
301 301 300 301 302 302 302 302 305 307 303 306 307 307 308 308 308 308 309 307 309 312 311 313 311 312 314 314 316 317 319 320 320 321 323 323 322 323 321 322 322 323 325 323 324
302 300 300 301 302 302 302 303 305 305 304 307 307 306 306 307 308 308 309 309 310 313 314 312 312 312 312 313 316 319 319 321 322 323 326 321 321 322 322 322 323 325 326 324 324
301 301 303 302 302 302 302 304 304 303 304 305 306 305 306 306 306 306 309 313 309 313 316 314 314 313 313 313 316 319 321 322 323 322 322 320 319 319 322 322 321 324 324 324 325
301 302 302 302 302 302 303 304 302 305 305 305 305 304 306 305 305 306 308 314 312 309 312 316 316 315 313 314 315 318 319 319 320 321 321 321 322 324 325 325 325 324 324 326 327
300 302 302 303 302 302 304 303 303 304 304 304 305 306 305 304 305 305 307 309 311 311 311 314 317 316 314 314 316 318 318 317 319 318 318 321 325 323 326 327 327 327 326 326 326
300 301 302 302 303 303 305 304 304 303 303 304 304 304 304 303 306 306 305 306 309 309 310 313 315 316 315 314 315 316 318 318 318 318 317 319 322 328 328 328 329 330 327 326 326
300 303 301 302 304 300 305 303 303 304 304 304 304 304 304 304 307 307 305 307 307 309 311 312 317 318 316 315 315 315 317 318 318 319 318 321 321 324 327 326 328 328 326 326 327
300 300 301 302 303 304 303 304 304 304 305 305 305 305 306 306 307 307 307 308 307 308 309 312 316 318 317 316 316 316 316 318 318 319 318 318 321 323 324 325 324 328 326 326 327
300 302 302 301 301 302 302 303 304 304 305 305 305 305 306 306 306 307 307 308 308 308 309 310 312 317 318 317 318 316 316 316 317 318 318 318 318 322 323 326 327 326 326 327 327
300 301 301 302 302 301 301 302 304 303 304 304 305 305 306 306 306 307 308 309 309 310 310 310 312 312 313 313 315 318 316 316 316 317 318 317 318 321 322 325 327 326 326 327 327
300 301 301 301 300 301 301 302 303 303 303 304 305 306 305 306 306 307 308 309 311 309 311 310 313 312 315 314 315 317 318 316 316 316 317 319 321 320 322 324 326 326 326 327 327
301 300 301 302 301 301 302 302 303 303 303 304 304 305 306 306 306 306 306 306 307 309 311 311 312 313 316 313 316 318 318 319 317 317 317 318 319 320 322 325 327 327 327 328 328
Wind_Speed
17 18 18 19 21 23 24 24 24 25 25 27 29 28 27 27 26 26 28 24 18 10 14 11 15 18 17 14 10 7 6 11 8 7 7 2 4 3 2 11 9 11 13 14 20
14 15 16 17 18 19 22 24 25 25 26 26 27 28 28 27 28 32 30 28 24 22 19 19 21 17 12 11 11 11 11 14 11 11 9 7 10 11 7 16 28 19 20 17 22
14 14 15 16 17 18 17 18 22 24 25 26 27 27 26 23 25 17 24 26 29 30 29 23 19 18 13 9 14 12 19 21 20 21 7 16 18 15 15 18 29 20 26 31 25
17 17 18 18 17 17 19 19 17 18 21 23 24 25 25 16 9 6 10 17 22 33 34 24 19 17 12 16 23 13 21 30 27 21 14 18 16 21 20 35 36 30 26 29 33
18 18 18 18 18 19 19 19 20 20 19 18 20 20 20 13 19 10 8 9 2 6 25 26 27 26 17 17 22 15 21 22 26 23 23 25 23 21 30 42 36 28 28 31 33
20 21 21 21 21 21 20 19 21 21 21 20 18 16 15 14 22 29 36 22 16 11 9 20 13 22 17 15 21 11 28 28 22 20 26 22 28 13 27 40 30 32 35 34 31
21 21 22 23 23 23 23 22 23 23 21 22 20 16 19 35 19 18 17 32 32 24 20 14 23 10 7 6 20 12 15 13 14 21 14 19 20 17 33 29 25 31 34 33 31
20 21 22 23 24 25 24 24 24 24 23 22 18 14 15 17 21 27 29 28 22 29 26 21 15 18 7 1 2 9 6 14 12 18 14 11 20 14 28 20 22 24 25 28 33
20 22 23 24 24 23 24 25 25 19 17 16 11 9 15 12 19 16 23 31 30 31 21 15 14 15 9 13 9 8 12 15 11 8 6 13 18 15 15 13 23 29 29 28 29
22 23 23 23 22 25 24 23 12 8 8 4 4 5 12 7 14 14 16 10 21 13 16 17 12 11 15 14 22 18 12 10 13 9 11 16 22 15 25 18 27 29 29 28 31
23 23 24 24 24 25 24 13 4 3 4 8 10 14 28 26 21 15 7 10 16 23 17 25 12 26 30 29 15 17 21 21 14 9 7 13 18 15 24 25 25 27 30 31 34
21 23 24 24 23 24 10 4 3 5 13 22 29 31 36 30 14 22 13 10 14 19 21 11 28 32 26 19 23 24 22 23 14 12 9 16 22 18 18 23 21 24 28 26 25
23 24 24 23 24 10 16 3 1 11 6 18 17 14 16 11 19 31 17 11 11 21 30 26 39 23 22 26 25 28 29 23 20 5 9 9 18 20 23 16 21 27 25 25 21
23 23 23 23 14 14 7 5 6 11 4 6 3 4 3 6 7 24 26 16 12 22 24 22 27 21 23 28 23 27 23 23 19 9 13 2 19 16 21 21 18 24 20 20 15
26 26 23 17 19 10 6 5 8 2 5 2 4 4 7 4 18 3 17 27 21 12 17 19 18 23 26 28 27 21 14 19 16 7 12 19 13 16 7 17 22 20 19 10 6
30 28 25 19 11 9 3 7 1 3 7 2 3 11 9 9 22 10 4 25 23 19 20 19 13 25 27 16 22 15 11 11 9 11 17 19 14 21 14 21 17 14 15 5 4
32 31 20 12 6 5 5 1 3 5 6 1 5 11 8 13 10 17 12 13 15 18 18 17 17 5 14 23 21 20 15 7 8 9 13 11 13 19 10 18 17 16 10 4 2
35 18 8 8 11 4 2 2 6 1 6 11 8 11 5 9 9 20 18 7 22 12 10 15 11 21 17 16 18 28 23 11 11 9 9 15 10 9 19 27 26 23 10 6 8
29 4 10 11 6 2 2 3 3 2 5 10 13 7 4 7 7 7 12 11 3 21 8 12 15 14 19 13 24 24 18 18 14 1 3 5 6 12 16 12 12 18 13 11 14
25 3 13 10 3 5 1 4 4 6 10 6 6 4 4 11 8 4 5 6 10 13 12 7 7 13 16 21 25 19 23 12 10 13 8 5 5 10 9 14 10 9 12 13 16
15 3 15 8 2 1 2 3 5 11 10 4 4 6 8 12 8 5 6 7 6 13 14 11 7 12 18 19 23 11 22 7 10 6 6 3 5 8 16 15 14 11 14 19 21
9 2 11 11 2 2 2 3 7 7 5 5 6 9 9 6 5 4 7 6 4 9 9 6 6 5 24 11 19 22 19 21 11 8 8 2 5 1 9 1 3 9 13 19 21
12 5 8 10 4 4 7 6 5 4 8 5 4 3 3 5 5 6 3 2 7 3 6 7 6 10 9 6 13 27 20 22 6 4 14 10 2 1 2 2 4 8 15 18 21
7 4 4 5 3 8 9 5 7 11 6 9 9 9 6 5 6 6 5 4 6 4 1 8 4 9 10 8 2 22 24 21 19 12 10 16 11 15 8 6 2 7 17 18 21
6 1 3 4 3 9 8 5 9 9 7 7 2 5 10 5 11 1 6 10 4 6 2 3 3 4 14 12 7 3 21 24 24 20 15 11 22 22 14 10 0 7 17 20 22
6 4 3 7 8 10 3 2 8 9 6 8 6 13 13 8 12 16 14 4 2 2 1 1 3 8 8 7 8 8 6 19 23 23 19 11 17 18 12 3 5 12 19 23 24
7 7 7 7 3 4 3 4 9 16 10 8 13 16 15 11 7 12 17 17 15 11 4 2 2 4 13 4 5 9 14 11 14 21 20 18 16 6 9 9 9 16 22 27 26
Wind_Direction
330 326 318 306 300 298 297 293 287 283 281 282 283 280 281 278 274 271 266 260 261 244 251 239 208 210 199 196 193 187 222 242 242 227 253 181 244 152 259 293 284 265 268 290 304
345 343 340 336 328 312 301 298 295 290 285 280 280 283 283 284 283 273 266 266 257 261 239 231 233 206 190 207 181 199 227 229 227 235 270 293 297 313 287 295 287 280 282 304 307
343 338 334 334 333 332 328 316 301 297 291 286 282 278 276 283 296 281 271 259 247 241 236 242 241 213 197 206 196 206 231 239 245 237 246 283 286 296 292 287 281 291 296 304 303
341 338 335 332 327 323 325 324 319 311 303 297 291 286 279 274 247 210 244 227 226 230 227 219 211 200 206 208 218 223 231 241 251 260 263 264 293 280 282 273 280 291 288 292 296
334 331 328 326 325 322 320 319 317 314 312 310 310 301 289 259 231 248 223 205 308 242 216 204 201 205 212 212 228 233 238 246 251 262 265 275 267 271 285 281 284 285 286 283 286
332 330 327 325 324 319 316 313 310 312 317 317 310 301 280 251 263 248 243 238 250 267 217 199 212 224 248 228 213 232 233 243 252 262 267 269 267 265 266 275 285 284 280 278 279
333 330 326 325 324 321 318 315 309 312 305 303 299 290 264 251 255 256 242 242 240 244 235 220 219 227 235 223 236 241 246 237 232 243 252 275 270 248 264 280 282 283 287 281 281
335 332 328 326 324 321 320 315 315 308 299 296 287 276 258 292 268 255 248 240 235 238 239 236 229 244 247 270 146 210 216 233 225 229 242 210 268 271 273 284 281 285 288 285 286
339 336 333 330 326 324 321 316 319 311 303 297 269 243 270 272 265 274 254 244 242 240 237 218 211 222 230 236 241 214 234 217 238 213 231 206 277 266 269 285 287 290 289 290 288
340 336 335 332 328 326 326 327 328 317 316 314 169 241 256 270 303 298 285 261 229 210 197 208 199 209 214 207 220 216 225 228 234 225 233 247 255 270 285 296 282 290 288 287 284
340 337 335 334 333 330 331 343 317 277 285 245 248 249 276 288 286 279 312 259 198 195 193 189 198 220 211 214 234 257 238 238 228 226 254 260 276 280 288 292 282 285 283 281 283
338 337 331 327 331 329 4 51 51 329 294 280 274 254 267 274 293 265 252 201 189 202 188 174 221 222 222 211 222 235 240 238 241 248 240 274 282 288 280 273 278 288 286 279 285
332 330 330 323 324 324 336 284 282 320 261 283 252 253 250 254 236 264 201 211 213 205 193 195 224 216 213 217 217 225 231 235 243 214 242 281 281 279 277 274 295 288 276 280 278
339 333 327 324 320 316 338 204 318 317 289 271 223 251 263 223 241 264 217 208 217 212 204 226 226 204 207 219 211 234 228 242 240 234 251 232 281 275 287 286 284 283 283 279 289
345 340 330 322 304 308 305 288 278 235 292 69 120 23 323 205 321 282 235 208 232 189 190 215 204 199 205 208 201 229 215 222 227 241 275 258 268 280 264 280 277 275 270 278 256
340 337 325 326 303 321 299 307 164 210 244 310 89 348 348 13 347 295 280 220 222 243 223 228 211 199 212 201 201 201 196 176 197 234 243 245 247 270 254 255 264 266 260 271 322
338 332 323 324 294 303 289 332 190 233 327 82 353 330 349 3 348 352 319 193 211 203 219 215 221 197 197 205 194 191 191 186 208 211 246 229 220 249 254 249 246 264 263 234 219
341 344 32 5 336 299 244 160 226 280 271 338 337 326 332 41 327 335 347 316 210 242 221 205 196 211 192 197 188 190 181 198 211 224 228 214 226 251 228 240 237 241 260 218 186
348 49 29 355 346 152 182 217 263 297 355 339 324 312 18 15 327 7 347 329 52 231 275 219 224 184 186 184 186 199 207 217 230 37 233 204 236 273 246 249 225 231 222 202 180
349 348 9 355 35 160 251 279 273 319 327 304 301 354 333 349 328 340 324 354 331 351 344 280 233 207 186 189 193 190 182 187 210 218 227 228 233 238 229 237 220 213 201 177 172
358 14 3 335 200 191 246 276 297 311 314 294 281 299 305 306 298 309 222 330 14 331 321 266 279 177 175 198 186 179 189 197 204 226 209 234 227 220 229 217 214 213 183 170 170
360 331 345 19 29 340 306 287 302 299 324 271 268 266 263 285 274 259 270 171 65 1 331 303 288 220 203 189 192 199 192 192 199 184 216 241 250 339 247 246 192 148 155 165 168
340 312 359 20 17 342 325 295 274 298 321 317 297 284 333 303 306 285 321 146 152 104 348 344 235 219 153 179 203 202 200 199 201 171 201 200 216 113 235 207 204 138 147 159 157
0 351 350 13 43 343 342 327 328 326 318 333 284 302 320 303 272 278 300 292 216 139 304 323 265 258 208 190 229 208 206 200 204 212 190 214 226 258 282 295 152 156 156 161 167
359 41 349 314 335 333 320 293 319 343 339 340 318 5 351 305 310 285 318 324 263 123 100 26 272 299 285 280 293 299 210 206 209 214 219 202 222 248 270 306 316 173 159 163 171
348 339 303 281 290 319 319 301 318 331 310 317 297 326 325 289 285 299 310 332 355 354 272 162 329 328 257 232 255 261 237 222 213 211 218 219 240 235 237 213 175 165 178 177 180
326 315 289 275 295 319 301 318 310 319 296 253 313 309 300 298 293 282 277 275 268 287 295 286 5 324 216 7 297 258 231 211 219 220 218 229 229 250 273 253 209 183 201 188 185